DLH97YT EINN-EDDM

Flight info

Callsign DLH97YT
Flight time 2h 1m
Altitude 41000
Route ABAGU3A ABAGU DCT ENJEX DCT AVZAC DCT ICOSA DCT RUHUN DCT UNZIB DCT NUCHU L607 KONAN DCT KOK UL607 MATUG DCT MOVUM T109 HAREM/N0441F350 T104 ELMOX/N0402F270 T104 ROKIL ROKIL1A
Aircraft A388/J-SADE2E3FGHIJ3J4J5M1RWXY/LB1D1

Departure

Time 2026-04-30 19:15
Airport Shannon Airport (EINN)

Arrival

Time 2026-04-30 21:16
Airport Munich Airport (EDDM)
Time Latitude Longitude Altitude Speed Heading
2026-04-30 18:53 52.69393 -8.92279 27 ft 0 kts 185°
2026-04-30 18:55 52.69373 -8.92282 27 ft 0 kts 185°
2026-04-30 18:57 52.69379 -8.92281 27 ft 1 kts 185°
2026-04-30 18:57 52.69394 -8.92279 27 ft 2 kts 185°
2026-04-30 18:58 52.69426 -8.92274 25 ft 2 kts 185°
2026-04-30 18:58 52.69442 -8.92276 25 ft 2 kts 167°
2026-04-30 18:58 52.69456 -8.92289 26 ft 2 kts 143°
2026-04-30 18:59 52.69469 -8.92336 25 ft 2 kts 95°
2026-04-30 19:00 52.69469 -8.92346 28 ft 0 kts 84°
2026-04-30 19:04 52.69475 -8.92315 28 ft 2 kts 36°
2026-04-30 19:05 52.69514 -8.92319 28 ft 8 kts 335°
2026-04-30 19:05 52.69611 -8.92457 27 ft 14 kts 315°
2026-04-30 19:06 52.69698 -8.92599 28 ft 0 kts 315°
2026-04-30 19:08 52.69700 -8.92602 28 ft 3 kts 315°
2026-04-30 19:08 52.69733 -8.92656 28 ft 10 kts 315°
2026-04-30 19:09 52.69859 -8.92861 31 ft 0 kts 315°
2026-04-30 19:11 52.69865 -8.92870 31 ft 2 kts 315°
2026-04-30 19:11 52.69883 -8.92899 33 ft 7 kts 315°
2026-04-30 19:12 52.69921 -8.92963 42 ft 7 kts 304°
2026-04-30 19:12 52.69925 -8.93082 45 ft 15 kts 242°
2026-04-30 19:12 52.69836 -8.93269 45 ft 26 kts 234°
2026-04-30 19:13 52.69555 -8.93855 46 ft 34 kts 233°
2026-04-30 19:13 52.69320 -8.94241 44 ft 11 kts 227°
2026-04-30 19:13 52.69316 -8.94278 46 ft 4 kts 310°
2026-04-30 19:14 52.69352 -8.94278 49 ft 7 kts 34°
2026-04-30 19:14 52.69388 -8.94209 47 ft 10 kts 54°
2026-04-30 19:14 52.69603 -8.93746 46 ft 104 kts 52°
2026-04-30 19:14 52.70216 -8.92459 105 ft 169 kts 53°
2026-04-30 19:15 52.70976 -8.90882 658 ft 182 kts 54°
2026-04-30 19:15 52.72567 -8.87163 1219 ft 216 kts 70°
2026-04-30 19:15 52.72742 -8.84624 1691 ft 233 kts 103°
2026-04-30 19:16 52.72269 -8.82019 2507 ft 241 kts 111°
2026-04-30 19:16 52.71738 -8.79325 3404 ft 254 kts 109°
2026-04-30 19:16 52.70688 -8.73647 5465 ft 264 kts 109°
2026-04-30 19:17 52.70165 -8.70745 6658 ft 263 kts 110°
2026-04-30 19:17 52.69110 -8.64942 8816 ft 267 kts 111°
2026-04-30 19:17 52.68576 -8.62016 9934 ft 268 kts 112°
2026-04-30 19:18 52.67646 -8.56968 11005 ft 296 kts 112°
2026-04-30 19:18 52.66800 -8.52397 11504 ft 322 kts 111°
2026-04-30 19:18 52.66150 -8.48834 12337 ft 326 kts 111°
2026-04-30 19:19 52.65495 -8.45246 13203 ft 329 kts 111°
2026-04-30 19:19 52.64836 -8.41657 14026 ft 333 kts 111°
2026-04-30 19:19 52.63480 -8.34306 15565 ft 339 kts 111°
2026-04-30 19:20 52.62788 -8.30575 16316 ft 342 kts 112°
2026-04-30 19:20 52.62086 -8.26802 17063 ft 345 kts 112°
2026-04-30 19:20 52.60664 -8.19178 18520 ft 352 kts 112°
2026-04-30 19:21 52.59941 -8.15310 19162 ft 355 kts 112°
2026-04-30 19:21 52.58476 -8.07491 20411 ft 360 kts 112°
2026-04-30 19:22 52.56981 -7.99558 21534 ft 367 kts 112°
2026-04-30 19:22 52.54671 -7.87363 23256 ft 377 kts 112°
2026-04-30 19:23 52.52299 -7.74918 24742 ft 386 kts 112°
2026-04-30 19:24 52.50672 -7.66436 25729 ft 393 kts 113°
2026-04-30 19:24 52.49700 -7.62250 26244 ft 392 kts 119°
2026-04-30 19:24 52.47445 -7.54018 27354 ft 400 kts 118°
2026-04-30 19:25 52.44001 -7.41283 28844 ft 416 kts 118°
2026-04-30 19:26 52.41631 -7.32570 30047 ft 423 kts 118°
2026-04-30 19:26 52.39195 -7.23664 31063 ft 431 kts 118°
2026-04-30 19:26 52.37964 -7.19173 31552 ft 435 kts 118°
2026-04-30 19:27 52.35460 -7.10071 32517 ft 443 kts 118°
2026-04-30 19:27 52.32898 -7.00793 33477 ft 451 kts 118°
2026-04-30 19:28 52.31600 -6.96106 33954 ft 455 kts 118°
2026-04-30 19:28 52.28936 -6.86592 34571 ft 466 kts 118°
2026-04-30 19:29 52.26232 -6.76952 35607 ft 467 kts 117°
2026-04-30 19:29 52.24900 -6.72124 36149 ft 467 kts 117°
2026-04-30 19:30 52.20849 -6.57637 37689 ft 470 kts 117°
2026-04-30 19:30 52.18120 -6.47969 37983 ft 465 kts 117°
2026-04-30 19:31 52.15387 -6.38340 38493 ft 468 kts 117°
2026-04-30 19:31 52.14021 -6.33537 38939 ft 469 kts 117°
2026-04-30 19:31 52.11268 -6.23889 39698 ft 471 kts 117°
2026-04-30 19:32 52.09875 -6.19025 40048 ft 473 kts 117°
2026-04-30 19:32 52.08485 -6.14178 40418 ft 474 kts 117°
2026-04-30 19:32 52.07089 -6.09322 40768 ft 475 kts 117°
2026-04-30 19:32 52.05706 -6.04517 41018 ft 479 kts 117°
2026-04-30 19:33 52.02895 -5.94587 41075 ft 478 kts 116°
2026-04-30 19:33 52.00156 -5.84807 41080 ft 479 kts 116°
2026-04-30 19:34 51.97372 -5.74948 41080 ft 479 kts 116°
2026-04-30 19:35 51.93188 -5.60234 41083 ft 479 kts 116°
2026-04-30 19:35 51.90380 -5.50410 41083 ft 479 kts 116°
2026-04-30 19:36 51.87572 -5.40630 41087 ft 479 kts 117°
2026-04-30 19:36 51.83340 -5.25962 41088 ft 479 kts 117°
2026-04-30 19:37 51.80525 -5.16255 41090 ft 479 kts 117°
2026-04-30 19:37 51.77995 -5.06288 41089 ft 481 kts 109°
2026-04-30 19:38 51.76394 -4.95789 41089 ft 483 kts 102°
2026-04-30 19:38 51.75157 -4.85105 41080 ft 483 kts 103°
2026-04-30 19:39 51.73890 -4.74482 41101 ft 483 kts 103°
2026-04-30 19:39 51.72606 -4.63853 41099 ft 482 kts 103°
2026-04-30 19:40 51.71311 -4.53227 41095 ft 482 kts 103°
2026-04-30 19:40 51.70011 -4.42636 41097 ft 482 kts 103°
2026-04-30 19:41 51.68708 -4.32100 41113 ft 481 kts 103°
2026-04-30 19:41 51.67381 -4.21457 41111 ft 481 kts 103°
2026-04-30 19:42 51.66054 -4.10900 41109 ft 481 kts 103°
2026-04-30 19:42 51.64718 -4.00349 41113 ft 481 kts 103°
2026-04-30 19:43 51.63384 -3.89891 41110 ft 480 kts 104°
2026-04-30 19:44 51.61347 -3.74076 41120 ft 480 kts 104°
2026-04-30 19:44 51.59982 -3.63578 41125 ft 480 kts 104°
2026-04-30 19:45 51.59053 -3.52923 41127 ft 482 kts 97°
2026-04-30 19:45 51.58448 -3.42176 41131 ft 482 kts 97°
2026-04-30 19:46 51.57813 -3.31443 41118 ft 482 kts 97°
2026-04-30 19:46 51.57169 -3.20708 41122 ft 482 kts 97°
2026-04-30 19:47 51.56515 -3.09984 41207 ft 483 kts 97°
2026-04-30 19:47 51.55855 -2.99300 41220 ft 483 kts 97°
2026-04-30 19:48 51.55176 -2.88498 41213 ft 483 kts 97°
2026-04-30 19:48 51.54502 -2.77759 41137 ft 482 kts 97°
2026-04-30 19:49 51.53802 -2.67031 41139 ft 482 kts 98°
2026-04-30 19:49 51.52748 -2.51058 41138 ft 482 kts 98°
2026-04-30 19:50 51.52031 -2.40360 41148 ft 482 kts 98°
2026-04-30 19:50 51.51433 -2.31454 41150 ft 480 kts 98°
2026-04-30 19:51 51.50698 -2.20798 41160 ft 480 kts 98°
2026-04-30 19:51 51.49958 -2.10210 41158 ft 480 kts 98°
2026-04-30 19:52 51.49209 -1.99581 41159 ft 480 kts 98°
2026-04-30 19:52 51.48449 -1.88936 41185 ft 479 kts 98°
2026-04-30 19:53 51.47680 -1.78331 41178 ft 479 kts 98°
2026-04-30 19:53 51.46859 -1.67718 41166 ft 478 kts 101°
2026-04-30 19:54 51.45488 -1.57308 41168 ft 477 kts 104°
2026-04-30 19:54 51.44064 -1.46903 41169 ft 477 kts 104°
2026-04-30 19:55 51.42639 -1.36532 41164 ft 477 kts 104°
2026-04-30 19:55 51.41205 -1.26186 41173 ft 477 kts 104°
2026-04-30 19:56 51.39818 -1.15803 41167 ft 478 kts 101°
2026-04-30 19:56 51.39134 -1.05206 41169 ft 479 kts 96°
2026-04-30 19:57 51.38604 -0.94653 41161 ft 479 kts 96°
2026-04-30 19:57 51.38045 -0.84007 41175 ft 479 kts 96°
2026-04-30 19:58 51.37479 -0.73398 41184 ft 479 kts 96°
2026-04-30 19:58 51.36903 -0.62762 41184 ft 479 kts 96°
2026-04-30 19:59 51.36317 -0.52136 41186 ft 480 kts 96°
2026-04-30 20:00 51.35421 -0.36206 41184 ft 480 kts 96°
2026-04-30 20:00 51.34815 -0.25645 41192 ft 480 kts 97°
2026-04-30 20:01 51.33878 -0.09648 41200 ft 480 kts 97°
2026-04-30 20:01 51.33243 0.00986 41198 ft 480 kts 97°
2026-04-30 20:02 51.31822 0.16777 41171 ft 479 kts 99°
2026-04-30 20:03 51.30350 0.32525 41167 ft 480 kts 99°
2026-04-30 20:03 51.29338 0.43078 41165 ft 480 kts 100°
2026-04-30 20:04 51.28315 0.53619 41167 ft 480 kts 100°
2026-04-30 20:05 51.26763 0.69421 41181 ft 480 kts 100°
2026-04-30 20:05 51.25191 0.85202 41197 ft 480 kts 100°
2026-04-30 20:06 51.24131 0.95720 41214 ft 480 kts 100°
2026-04-30 20:06 51.23056 1.06224 41234 ft 478 kts 101°
2026-04-30 20:07 51.21978 1.16664 41222 ft 477 kts 101°
2026-04-30 20:08 51.20362 1.32309 41225 ft 476 kts 100°
2026-04-30 20:08 51.19287 1.42728 41210 ft 476 kts 100°
2026-04-30 20:09 51.18177 1.53082 41236 ft 474 kts 101°
2026-04-30 20:09 51.16506 1.68605 41216 ft 473 kts 100°
2026-04-30 20:10 51.14849 1.84055 41205 ft 471 kts 101°
2026-04-30 20:11 51.13157 1.99475 41190 ft 471 kts 98°
2026-04-30 20:11 51.12544 2.09877 41203 ft 472 kts 95°
2026-04-30 20:12 51.11712 2.25542 41215 ft 475 kts 96°
2026-04-30 20:13 51.11134 2.36054 41240 ft 476 kts 96°
2026-04-30 20:13 51.10518 2.46509 41216 ft 478 kts 96°
2026-04-30 20:14 51.09917 2.57018 41223 ft 472 kts 96°
2026-04-30 20:14 51.09570 2.62171 41218 ft 450 kts 99°
2026-04-30 20:14 51.09033 2.67000 41247 ft 441 kts 103°
2026-04-30 20:15 51.07454 2.76331 41230 ft 441 kts 107°
2026-04-30 20:15 51.05747 2.85728 41235 ft 445 kts 107°
2026-04-30 20:16 51.04033 2.95189 41236 ft 446 kts 107°
2026-04-30 20:16 51.02282 3.04680 41241 ft 447 kts 107°
2026-04-30 20:17 51.00541 3.14155 41246 ft 447 kts 107°
2026-04-30 20:17 50.98789 3.23626 41248 ft 446 kts 107°
2026-04-30 20:18 50.97031 3.33064 41264 ft 446 kts 107°
2026-04-30 20:18 50.95269 3.42482 41270 ft 445 kts 107°
2026-04-30 20:19 50.93500 3.51889 41269 ft 445 kts 107°
2026-04-30 20:19 50.91728 3.61266 41269 ft 444 kts 107°
2026-04-30 20:20 50.89940 3.70633 41269 ft 443 kts 107°
2026-04-30 20:20 50.88129 3.79956 41277 ft 442 kts 107°
2026-04-30 20:21 50.86318 3.89240 41273 ft 440 kts 107°
2026-04-30 20:21 50.84529 3.98508 41274 ft 440 kts 107°
2026-04-30 20:22 50.82731 4.07704 41269 ft 440 kts 107°
2026-04-30 20:22 50.80904 4.16992 41273 ft 439 kts 107°
2026-04-30 20:23 50.79094 4.26149 41270 ft 439 kts 107°
2026-04-30 20:23 50.77254 4.35417 41294 ft 439 kts 107°
2026-04-30 20:24 50.75433 4.44546 41275 ft 439 kts 107°
2026-04-30 20:24 50.73580 4.53792 41272 ft 439 kts 107°
2026-04-30 20:25 50.70853 4.67522 41286 ft 439 kts 107°
2026-04-30 20:26 50.68178 4.81316 41269 ft 438 kts 106°
2026-04-30 20:26 50.65486 4.95077 41255 ft 438 kts 107°
2026-04-30 20:27 50.61735 5.13314 41279 ft 437 kts 106°
2026-04-30 20:28 50.57945 5.31540 41269 ft 439 kts 107°
2026-04-30 20:30 50.53151 5.54407 41279 ft 441 kts 107°
2026-04-30 20:31 50.48894 5.82447 41298 ft 441 kts 101°
2026-04-30 20:32 50.45803 6.06017 41312 ft 442 kts 100°
2026-04-30 20:33 50.43917 6.20142 41309 ft 440 kts 101°
2026-04-30 20:34 50.42251 6.32663 41302 ft 439 kts 100°
2026-04-30 20:35 50.39694 6.46470 41294 ft 440 kts 106°
2026-04-30 20:35 50.36872 6.60125 41291 ft 440 kts 106°
2026-04-30 20:36 50.34986 6.69257 41312 ft 441 kts 106°
2026-04-30 20:37 50.32123 6.82969 41328 ft 442 kts 107°
2026-04-30 20:37 50.30200 6.92106 41349 ft 443 kts 107°
2026-04-30 20:38 50.28260 7.01202 41345 ft 443 kts 107°
2026-04-30 20:38 50.26321 7.10342 41349 ft 443 kts 106°
2026-04-30 20:39 50.23407 7.24071 41355 ft 444 kts 107°
2026-04-30 20:40 50.20457 7.37796 41364 ft 445 kts 106°
2026-04-30 20:40 50.18480 7.46945 41361 ft 445 kts 106°
2026-04-30 20:41 50.15495 7.60680 41361 ft 445 kts 107°
2026-04-30 20:41 50.13498 7.69816 41361 ft 445 kts 107°
2026-04-30 20:42 50.11493 7.78953 41368 ft 445 kts 107°
2026-04-30 20:43 50.08477 7.92615 41375 ft 445 kts 106°
2026-04-30 20:43 50.06456 8.01723 41373 ft 444 kts 106°
2026-04-30 20:44 50.03417 8.15341 41378 ft 443 kts 106°
2026-04-30 20:45 49.99366 8.33359 41368 ft 442 kts 106°
2026-04-30 20:45 49.97329 8.42364 41366 ft 441 kts 106°
2026-04-30 20:46 49.92367 8.59806 41341 ft 444 kts 117°
2026-04-30 20:47 49.87764 8.72254 41339 ft 443 kts 116°
2026-04-30 20:48 49.83152 8.84701 41340 ft 443 kts 116°
2026-04-30 20:48 49.80078 8.92949 41338 ft 443 kts 117°
2026-04-30 20:49 49.77011 9.01159 41337 ft 443 kts 117°
2026-04-30 20:50 49.72376 9.13527 41331 ft 443 kts 116°
2026-04-30 20:50 49.69272 9.21778 41331 ft 444 kts 116°
2026-04-30 20:51 49.66160 9.30019 41330 ft 444 kts 116°
2026-04-30 20:51 49.61232 9.42335 41347 ft 465 kts 124°
2026-04-30 20:52 49.59160 9.46230 41346 ft 477 kts 128°
2026-04-30 20:52 49.56923 9.50107 41349 ft 487 kts 128°
2026-04-30 20:53 49.50235 9.61786 41318 ft 484 kts 128°
2026-04-30 20:53 49.47982 9.65720 41087 ft 481 kts 127°
2026-04-30 20:53 49.45769 9.69581 40488 ft 481 kts 127°
2026-04-30 20:54 49.41336 9.77287 38496 ft 482 kts 127°
2026-04-30 20:54 49.39121 9.81129 37040 ft 483 kts 127°
2026-04-30 20:54 49.36880 9.84998 35556 ft 486 kts 127°
2026-04-30 20:55 49.32387 9.92758 33699 ft 483 kts 127°
2026-04-30 20:55 49.30181 9.96562 33135 ft 473 kts 127°
2026-04-30 20:55 49.28010 10.00294 32511 ft 465 kts 127°
2026-04-30 20:56 49.23766 10.07580 31207 ft 452 kts 127°
2026-04-30 20:56 49.21692 10.11134 30556 ft 446 kts 127°
2026-04-30 20:56 49.17607 10.18117 29263 ft 433 kts 127°
2026-04-30 20:57 49.15621 10.21510 28615 ft 426 kts 127°
2026-04-30 20:57 49.13654 10.24862 27987 ft 420 kts 126°
2026-04-30 20:57 49.11677 10.28111 27374 ft 416 kts 128°
2026-04-30 20:58 49.07727 10.34406 26216 ft 406 kts 128°
2026-04-30 20:58 49.05774 10.37524 25670 ft 406 kts 128°
2026-04-30 20:58 49.03855 10.40596 25153 ft 405 kts 128°
2026-04-30 20:58 49.01917 10.43701 24532 ft 405 kts 128°
2026-04-30 20:59 48.98056 10.49872 23315 ft 397 kts 129°
2026-04-30 20:59 48.96163 10.52883 22683 ft 391 kts 129°
2026-04-30 21:00 48.92447 10.58792 21491 ft 382 kts 128°
2026-04-30 21:00 48.88812 10.64571 20264 ft 375 kts 129°
2026-04-30 21:01 48.85221 10.70267 19066 ft 370 kts 129°
2026-04-30 21:01 48.83450 10.73071 18425 ft 368 kts 129°
2026-04-30 21:01 48.79937 10.78618 17233 ft 360 kts 129°
2026-04-30 21:02 48.78205 10.81338 16651 ft 356 kts 129°
2026-04-30 21:02 48.76499 10.84014 16063 ft 352 kts 130°
2026-04-30 21:02 48.74805 10.86667 15513 ft 348 kts 130°
2026-04-30 21:02 48.73144 10.89269 14937 ft 345 kts 130°
2026-04-30 21:03 48.71481 10.91871 14384 ft 342 kts 130°
2026-04-30 21:03 48.69818 10.94470 13808 ft 338 kts 130°
2026-04-30 21:03 48.68191 10.97010 13244 ft 333 kts 130°
2026-04-30 21:03 48.66582 10.99515 12720 ft 329 kts 130°
2026-04-30 21:04 48.65024 11.01940 12183 ft 324 kts 130°
2026-04-30 21:04 48.63466 11.04362 11671 ft 320 kts 131°
2026-04-30 21:04 48.60399 11.09119 10665 ft 312 kts 131°
2026-04-30 21:05 48.58916 11.11413 10522 ft 297 kts 131°
2026-04-30 21:05 48.57424 11.13463 10387 ft 285 kts 139°
2026-04-30 21:05 48.55790 11.15136 10229 ft 282 kts 143°
2026-04-30 21:05 48.54170 11.16761 10065 ft 282 kts 142°
2026-04-30 21:06 48.52564 11.18398 9743 ft 284 kts 142°
2026-04-30 21:06 48.51006 11.20120 9399 ft 277 kts 135°
2026-04-30 21:06 48.49648 11.22121 9048 ft 270 kts 131°
2026-04-30 21:06 48.48325 11.24111 8668 ft 267 kts 132°
2026-04-30 21:07 48.47005 11.26064 8292 ft 265 kts 133°
2026-04-30 21:07 48.45690 11.27997 7904 ft 262 kts 133°
2026-04-30 21:07 48.44392 11.29903 7545 ft 260 kts 133°
2026-04-30 21:07 48.43100 11.31803 7182 ft 258 kts 133°
2026-04-30 21:08 48.41797 11.33721 6829 ft 264 kts 133°
2026-04-30 21:08 48.40501 11.35623 6599 ft 255 kts 133°
2026-04-30 21:08 48.39254 11.37447 6496 ft 243 kts 133°
2026-04-30 21:08 48.38078 11.39170 6412 ft 231 kts 133°
2026-04-30 21:09 48.36949 11.40822 6325 ft 221 kts 133°
2026-04-30 21:09 48.35880 11.42387 6235 ft 211 kts 133°
2026-04-30 21:09 48.34861 11.43878 6095 ft 198 kts 132°
2026-04-30 21:09 48.33896 11.45287 5919 ft 188 kts 132°
2026-04-30 21:10 48.33008 11.46607 5823 ft 172 kts 127°
2026-04-30 21:10 48.32427 11.48025 5589 ft 154 kts 107°
2026-04-30 21:10 48.32229 11.49603 5258 ft 154 kts 93°
2026-04-30 21:10 48.32249 11.51203 4908 ft 152 kts 87°
2026-04-30 21:11 48.32345 11.52762 4571 ft 147 kts 85°
2026-04-30 21:11 48.32453 11.54209 4356 ft 136 kts 85°
2026-04-30 21:11 48.32559 11.55603 4164 ft 135 kts 86°
2026-04-30 21:11 48.32663 11.56972 3986 ft 130 kts 84°
2026-04-30 21:12 48.32768 11.58273 3816 ft 121 kts 87°
2026-04-30 21:12 48.32861 11.59517 3642 ft 118 kts 85°
2026-04-30 21:12 48.32956 11.60739 3483 ft 117 kts 86°
2026-04-30 21:12 48.33048 11.61943 3324 ft 116 kts 85°
2026-04-30 21:13 48.33142 11.63143 3169 ft 116 kts 86°
2026-04-30 21:13 48.33234 11.64358 2997 ft 117 kts 85°
2026-04-30 21:13 48.33328 11.65550 2840 ft 115 kts 85°
2026-04-30 21:13 48.33419 11.66754 2681 ft 119 kts 85°
2026-04-30 21:14 48.33517 11.68018 2502 ft 123 kts 85°
2026-04-30 21:14 48.33617 11.69312 2326 ft 127 kts 84°
2026-04-30 21:14 48.33724 11.70650 2125 ft 130 kts 83°
2026-04-30 21:14 48.33798 11.71545 1975 ft 130 kts 83°
2026-04-30 21:15 48.33888 11.72892 1783 ft 130 kts 84°
2026-04-30 21:15 48.33995 11.74234 1637 ft 130 kts 83°
2026-04-30 21:15 48.34138 11.76002 1485 ft 125 kts 83°
2026-04-30 21:15 48.34219 11.77058 1480 ft 81 kts 84°
2026-04-30 21:16 48.34270 11.77735 1485 ft 51 kts 83°
2026-04-30 21:16 48.34294 11.78049 1477 ft 33 kts 83°
2026-04-30 21:16 48.34336 11.78260 1477 ft 20 kts 61°
2026-04-30 21:16 48.34417 11.78435 1485 ft 21 kts 53°
2026-04-30 21:17 48.34504 11.78609 1477 ft 21 kts 53°
2026-04-30 21:17 48.34578 11.78703 1479 ft 6 kts 342°
2026-04-30 21:17 48.34605 11.78633 1488 ft 11 kts 278°
2026-04-30 21:17 48.34604 11.78532 1490 ft 9 kts 263°
2026-04-30 21:18 48.34594 11.78397 1477 ft 16 kts 263°
2026-04-30 21:18 48.34582 11.78249 1480 ft 0 kts 263°
2026-04-30 21:18 48.34579 11.78210 1476 ft 8 kts 263°
2026-04-30 21:18 48.34573 11.78134 1490 ft 2 kts 263°
2026-04-30 21:19 48.34570 11.78098 1490 ft 4 kts 264°
2026-04-30 21:19 48.34568 11.78068 1490 ft 1 kts 264°
2026-04-30 21:19 48.34567 11.78049 1490 ft 4 kts 264°
2026-04-30 21:19 48.34565 11.78024 1477 ft 0 kts 264°
2026-04-30 21:20 48.34562 11.77985 1481 ft 7 kts 264°
2026-04-30 21:20 48.34560 11.77951 1482 ft 0 kts 264°
2026-04-30 21:21 48.34559 11.77934 1487 ft 5 kts 264°
2026-04-30 21:21 48.34541 11.77685 1488 ft 17 kts 264°
2026-04-30 21:22 48.34526 11.77491 1488 ft 20 kts 262°
2026-04-30 21:22 48.34500 11.77190 1487 ft 2 kts 264°
2026-04-30 21:23 48.34495 11.77121 1479 ft 11 kts 264°
2026-04-30 21:23 48.34488 11.77025 1485 ft 12 kts 264°
2026-04-30 21:23 48.34465 11.76720 1478 ft 12 kts 263°
2026-04-30 21:24 48.34455 11.76596 1490 ft 15 kts 263°
2026-04-30 21:24 48.34440 11.76411 1484 ft 21 kts 263°
2026-04-30 21:24 48.34424 11.76195 1484 ft 11 kts 264°
2026-04-30 21:24 48.34416 11.76085 1486 ft 14 kts 264°
2026-04-30 21:25 48.34440 11.75792 1478 ft 14 kts 335°
2026-04-30 21:25 48.34514 11.75770 1482 ft 11 kts 354°
2026-04-30 21:25 48.34543 11.75765 1490 ft 5 kts 354°
2026-04-30 21:26 48.34580 11.75759 1486 ft 0 kts 354°
2026-04-30 21:26 48.34609 11.75754 1478 ft 8 kts 354°
2026-04-30 21:27 48.34669 11.75656 1490 ft 10 kts 266°
2026-04-30 21:27 48.34665 11.75582 1483 ft 7 kts 265°
2026-04-30 21:27 48.34662 11.75545 1490 ft 7 kts 261°
2026-04-30 21:28 48.34647 11.75369 1481 ft 4 kts 264°
2026-04-30 21:28 48.34641 11.75289 1485 ft 10 kts 264°
2026-04-30 21:28 48.34600 11.75187 1488 ft 1 kts 174°
2026-04-30 21:29 48.34574 11.75192 1482 ft 5 kts 172°
2026-04-30 21:29 48.34551 11.75196 1488 ft 0 kts 173°
2026-04-30 21:30 48.34547 11.75197 1486 ft 0 kts 173°
2026-04-30 21:31 48.34552 11.75196 1482 ft 0 kts 173°